TimeCDT,TemperatureF,Dew PointF,Humidity,Sea Level PressureIn,VisibilityMPH,Wind Direction,Wind SpeedMPH,Gust SpeedMPH,PrecipitationIn,Events,Conditions,WindDirDegrees,DateUTC
12:12 AM,33.8,28.4,81,30.35,10.0,West,3.5,-,N/A,,Overcast,280,2012-10-27 05:12:00
12:32 AM,32.0,28.4,87,30.35,10.0,Calm,Calm,-,N/A,,Overcast,0,2012-10-27 05:32:00
12:52 AM,33.8,28.4,81,30.35,10.0,West,3.5,-,N/A,,Overcast,270,2012-10-27 05:52:00
1:12 AM,32.0,28.4,87,30.35,10.0,West,3.5,-,N/A,,Overcast,280,2012-10-27 06:12:00
1:32 AM,32.0,26.6,80,30.34,10.0,Calm,Calm,-,N/A,,Overcast,0,2012-10-27 06:32:00
1:52 AM,32.0,26.6,80,30.34,10.0,Calm,Calm,-,N/A,,Overcast,0,2012-10-27 06:52:00
2:12 AM,32.0,26.6,80,30.33,10.0,Calm,Calm,-,N/A,,Overcast,0,2012-10-27 07:12:00
2:31 AM,30.2,26.6,86,30.33,10.0,Calm,Calm,-,N/A,,Overcast,0,2012-10-27 07:31:00
2:52 AM,30.2,26.6,86,30.33,10.0,Calm,Calm,-,N/A,,Mostly Cloudy,0,2012-10-27 07:52:00
3:32 AM,28.4,24.8,86,30.33,10.0,Calm,Calm,-,N/A,,Scattered Clouds,0,2012-10-27 08:32:00
3:52 AM,28.4,24.8,86,30.33,10.0,Calm,Calm,-,N/A,,Mostly Cloudy,0,2012-10-27 08:52:00
4:12 AM,28.4,24.8,86,30.33,10.0,Calm,Calm,-,N/A,,Overcast,0,2012-10-27 09:12:00
4:32 AM,28.4,24.8,86,30.33,10.0,Calm,Calm,-,N/A,,Overcast,0,2012-10-27 09:32:00
4:52 AM,28.4,24.8,86,30.33,10.0,Calm,Calm,-,N/A,,Overcast,0,2012-10-27 09:52:00
5:12 AM,28.4,24.8,86,30.33,10.0,Calm,Calm,-,N/A,,Overcast,0,2012-10-27 10:12:00
5:32 AM,28.4,24.8,86,30.34,10.0,Calm,Calm,-,N/A,,Mostly Cloudy,0,2012-10-27 10:32:00
5:52 AM,26.6,24.8,93,30.34,10.0,Calm,Calm,-,N/A,,Clear,0,2012-10-27 10:52:00
6:12 AM,28.4,24.8,86,30.34,10.0,Calm,Calm,-,N/A,,Clear,0,2012-10-27 11:12:00
6:52 AM,26.6,24.8,93,30.35,10.0,Calm,Calm,-,N/A,,Clear,0,2012-10-27 11:52:00
7:12 AM,26.6,24.8,93,30.34,10.0,Calm,Calm,-,N/A,,Clear,0,2012-10-27 12:12:00
7:32 AM,26.6,24.8,93,30.35,10.0,Calm,Calm,-,N/A,,Clear,0,2012-10-27 12:32:00
7:52 AM,24.8,24.8,100,30.35,10.0,Calm,Calm,-,N/A,,Clear,0,2012-10-27 12:52:00
8:12 AM,26.6,24.8,93,30.35,10.0,Calm,Calm,-,N/A,,Clear,0,2012-10-27 13:12:00
8:32 AM,26.6,26.6,100,30.36,10.0,Calm,Calm,-,N/A,,Clear,0,2012-10-27 13:32:00
9:12 AM,30.2,24.8,80,30.36,10.0,Calm,Calm,-,N/A,,Clear,0,2012-10-27 14:12:00
9:32 AM,32.0,23.0,69,30.36,10.0,West,3.5,-,N/A,,Clear,280,2012-10-27 14:32:00
9:51 AM,33.8,23.0,65,30.36,10.0,West,3.5,-,N/A,,Clear,280,2012-10-27 14:51:00
10:32 AM,35.6,21.2,56,30.37,10.0,WNW,4.6,-,N/A,,Clear,290,2012-10-27 15:32:00
10:52 AM,35.6,21.2,56,30.37,10.0,West,4.6,-,N/A,,Clear,270,2012-10-27 15:52:00
11:12 AM,35.6,19.4,52,30.37,10.0,NW,3.5,-,N/A,,Clear,320,2012-10-27 16:12:00
11:31 AM,37.4,19.4,48,30.37,10.0,South,4.6,-,N/A,,Clear,180,2012-10-27 16:31:00
11:52 AM,37.4,17.6,45,30.36,10.0,Calm,Calm,-,N/A,,Clear,0,2012-10-27 16:52:00
12:12 PM,37.4,21.2,52,30.36,10.0,SSW,4.6,-,N/A,,Scattered Clouds,210,2012-10-27 17:12:00
12:31 PM,37.4,19.4,48,30.35,10.0,SW,6.9,-,N/A,,Scattered Clouds,230,2012-10-27 17:31:00
12:52 PM,37.4,19.4,48,30.34,10.0,WNW,4.6,-,N/A,,Scattered Clouds,300,2012-10-27 17:52:00
1:12 PM,37.4,19.4,48,30.33,10.0,Calm,Calm,-,N/A,,Clear,0,2012-10-27 18:12:00
1:31 PM,37.4,19.4,48,30.33,10.0,SSW,3.5,-,N/A,,Clear,210,2012-10-27 18:31:00
1:52 PM,39.2,19.4,45,30.32,10.0,WSW,4.6,-,N/A,,Clear,240,2012-10-27 18:52:00
2:12 PM,37.4,19.4,48,30.31,10.0,Calm,Calm,-,N/A,,Clear,0,2012-10-27 19:12:00
2:31 PM,37.4,19.4,48,30.30,10.0,Calm,Calm,-,N/A,,Clear,0,2012-10-27 19:31:00
2:52 PM,39.2,21.2,49,30.30,10.0,Calm,Calm,-,N/A,,Clear,0,2012-10-27 19:52:00
3:12 PM,39.2,21.2,49,30.29,10.0,Calm,Calm,-,N/A,,Clear,0,2012-10-27 20:12:00
3:31 PM,37.4,19.4,48,30.29,10.0,Calm,Calm,-,N/A,,Clear,0,2012-10-27 20:31:00
3:52 PM,37.4,19.4,48,30.29,10.0,Calm,Calm,-,N/A,,Clear,0,2012-10-27 20:52:00
4:12 PM,37.4,19.4,48,30.29,10.0,Calm,Calm,-,N/A,,Clear,0,2012-10-27 21:12:00
4:31 PM,37.4,19.4,48,30.29,10.0,Calm,Calm,-,N/A,,Clear,0,2012-10-27 21:31:00
5:12 PM,37.4,19.4,48,30.28,10.0,Calm,Calm,-,N/A,,Clear,0,2012-10-27 22:12:00
5:31 PM,37.4,21.2,52,30.28,10.0,Calm,Calm,-,N/A,,Clear,0,2012-10-27 22:31:00
5:52 PM,37.4,21.2,52,30.28,10.0,Calm,Calm,-,N/A,,Clear,0,2012-10-27 22:52:00
6:12 PM,37.4,23.0,56,30.28,10.0,Calm,Calm,-,N/A,,Clear,0,2012-10-27 23:12:00
6:32 PM,35.6,23.0,60,30.28,10.0,Calm,Calm,-,N/A,,Clear,0,2012-10-27 23:32:00
6:52 PM,35.6,21.2,56,30.29,10.0,Calm,Calm,-,N/A,,Clear,0,2012-10-27 23:52:00
7:12 PM,35.6,21.2,56,30.29,10.0,Calm,Calm,-,N/A,,Clear,0,2012-10-28 00:12:00
7:32 PM,33.8,24.8,70,30.30,10.0,Calm,Calm,-,N/A,,Clear,0,2012-10-28 00:32:00
7:52 PM,33.8,24.8,70,30.30,10.0,Calm,Calm,-,N/A,,Clear,0,2012-10-28 00:52:00
8:12 PM,33.8,24.8,70,30.30,10.0,Calm,Calm,-,N/A,,Clear,0,2012-10-28 01:12:00
8:32 PM,30.2,24.8,80,30.30,10.0,Calm,Calm,-,N/A,,Clear,0,2012-10-28 01:32:00
8:52 PM,30.2,24.8,80,30.31,10.0,Calm,Calm,-,N/A,,Clear,0,2012-10-28 01:52:00
9:12 PM,30.2,24.8,80,30.31,10.0,Calm,Calm,-,N/A,,Clear,0,2012-10-28 02:12:00
9:32 PM,30.2,26.6,86,30.31,7.0,Calm,Calm,-,N/A,,Clear,0,2012-10-28 02:32:00
9:52 PM,30.2,26.6,86,30.32,5.0,Calm,Calm,-,N/A,,Clear,0,2012-10-28 02:52:00
10:12 PM,30.2,26.6,86,30.32,10.0,Calm,Calm,-,N/A,,Clear,0,2012-10-28 03:12:00
10:32 PM,28.4,26.6,93,30.32,7.0,Calm,Calm,-,N/A,,Clear,0,2012-10-28 03:32:00
10:52 PM,28.4,24.8,86,30.32,7.0,Calm,Calm,-,N/A,,Clear,0,2012-10-28 03:52:00
11:32 PM,28.4,26.6,93,30.32,10.0,Calm,Calm,-,N/A,,Clear,0,2012-10-28 04:32:00
11:52 PM,28.4,26.6,93,30.32,10.0,Calm,Calm,-,N/A,,Clear,0,2012-10-28 04:52:00